Location: Demmingen
(48.6757°N, 10.4375°E)
Time: 12:13:06
(UTC+00:00)

Cosmos 1745 Rocket - Pass Details

Date: 10 August 2024
Orbit: 952 x 997 km, 83.0° (Epoch: 16 September)

Event Time Altitude Azimuth Distance (km) Brightness Sun altitude
Rises 02:35:44 0° 351° (N) 3,640 7.5 -13.0°
Reaches altitude 10° 02:38:14 10° 353° (N) 2,691 6.8 -12.7°
Maximum altitude 02:44:24 78° 80° (E) 982 4.1 -12.0°
Drops below altitude 10° 02:50:33 10° 167° (SSE) 2,689 6.1 -11.2°
Sets 02:53:03 0° 169° (S) 3,636 6.7 -10.9°
